| time (UTC) | temp C | wind direction | speed KPH | gust KPH | rain 1hr cm | rain 24hr cm | rain mn cm | humidity % | barometer mb |
| 20260502163255 | 26 | 236 | 4.8 | 9.7 | 0.00 | 0.00 | 0.00 | 33 | 1015.3 |
| 20260502162754 | 26 | 224 | 6.4 | 14.5 | 0.00 | 0.00 | 0.00 | 34 | 1015.4 |
| 20260502162255 | 26 | 258 | 6.4 | 8.0 | 0.00 | 0.00 | 0.00 | 33 | 1015.5 |
| 20260502161755 | 27 | 5 | 6.4 | 9.7 | 0.00 | 0.00 | 0.00 | 34 | 1015.6 |
| 20260502161254 | 27 | 327 | 3.2 | 11.3 | 0.00 | 0.00 | 0.00 | 35 | 1015.6 |
| 20260502160755 | 27 | 323 | 4.8 | 8.0 | 0.00 | 0.00 | 0.00 | 35 | 1015.7 |
| 20260502160253 | 27 | 284 | 1.6 | 8.0 | 0.00 | 0.00 | 0.00 | 35 | 1015.8 |
| 20260502152254 | 28 | 201 | 6.4 | 9.7 | 0.00 | 0.00 | 0.00 | 35 | 1016.1 |
| 20260502151755 | 28 | 266 | 3.2 | 8.0 | 0.00 | 0.00 | 0.00 | 34 | 1016.2 |
| 20260502151254 | 28 | 15 | 3.2 | 16.1 | 0.00 | 0.00 | 0.00 | 33 | 1016.3 |
| 20260502150755 | 28 | 184 | 4.8 | 11.3 | 0.00 | 0.00 | 0.00 | 32 | 1016.3 |
| 20260502150254 | 28 | 284 | 4.8 | 8.0 | 0.00 | 0.00 | 0.00 | 34 | 1016.4 |
| 20260502130254 | 26 | 284 | 3.2 | 9.7 | 0.00 | 0.00 | 0.00 | 39 | 1018.2 |
| 20260502123755 | 26 | 180 | 4.8 | 9.7 | 0.00 | 0.00 | 0.00 | 39 | 1018.6 |
| 20260502123254 | 26 | 85 | 3.2 | 11.3 | 0.00 | 0.00 | 0.00 | 38 | 1018.6 |
| 20260502122754 | 26 | 201 | 9.7 | 12.9 | 0.00 | 0.00 | 0.00 | 38 | 1018.7 |
| 20260502122253 | 26 | 251 | 4.8 | 14.5 | 0.00 | 0.00 | 0.00 | 44 | 1018.8 |
| 20260502121754 | 26 | 329 | 1.6 | 4.8 | 0.00 | 0.00 | 0.00 | 41 | 1018.8 |
| 20260502121253 | 26 | 163 | 1.6 | 6.4 | 0.00 | 0.00 | 0.00 | 42 | 1018.9 |
| 20260502120754 | 26 | 326 | 1.6 | 4.8 | 0.00 | 0.00 | 0.00 | 40 | 1019.0 |
| 20260502120254 | 26 | 102 | 3.2 | 8.0 | 0.00 | 0.00 | 0.00 | 40 | 1019.0 |
| 20260502115754 | 26 | 290 | 6.4 | 9.7 | 0.00 | 0.00 | 0.00 | 40 | 1019.1 |
| 20260502115254 | 26 | 267 | 4.8 | 8.0 | 0.00 | 0.00 | 0.00 | 43 | 1019.2 |
| 20260502114755 | 26 | 304 | 6.4 | 9.7 | 0.00 | 0.00 | 0.00 | 38 | 1019.3 |
| 20260502114254 | 26 | 227 | 8.0 | 12.9 | 0.00 | 0.00 | 0.00 | 38 | 1019.2 |
| 20260502113755 | 26 | 93 | 4.8 | 9.7 | 0.00 | 0.00 | 0.00 | 42 | 1019.3 |
| 20260502113255 | 25 | 300 | 3.2 | 6.4 | 0.00 | 0.00 | 0.00 | 39 | 1019.4 |
| 20260502112755 | 26 | 303 | 4.8 | 12.9 | 0.00 | 0.00 | 0.00 | 39 | 1019.5 |
| 20260502112255 | 26 | 250 | 4.8 | 14.5 | 0.00 | 0.00 | 0.00 | 39 | 1019.6 |
| 20260502111753 | 26 | 281 | 8.0 | 12.9 | 0.00 | 0.00 | 0.00 | 39 | 1019.7 |
| 20260502111253 | 26 | 229 | 3.2 | 9.7 | 0.00 | 0.00 | 0.00 | 39 | 1019.7 |
| 20260502110754 | 25 | 336 | 4.8 | 9.7 | 0.00 | 0.00 | 0.00 | 41 | 1019.8 |
| 20260502110253 | 25 | 63 | 1.6 | 4.8 | 0.00 | 0.00 | 0.00 | 40 | 1019.8 |
| 20260502105754 | 25 | 259 | 4.8 | 6.4 | 0.00 | 0.00 | 0.00 | 41 | 1019.9 |
| 20260502105254 | 25 | 263 | 4.8 | 11.3 | 0.00 | 0.00 | 0.00 | 39 | 1020.0 |
| 20260502104754 | 25 | 175 | 1.6 | 11.3 | 0.00 | 0.00 | 0.00 | 43 | 1019.9 |
| 20260502104254 | 25 | 234 | 1.6 | 4.8 | 0.00 | 0.00 | 0.00 | 41 | 1020.0 |
| 20260502103754 | 25 | 49 | 1.6 | 3.2 | 0.00 | 0.00 | 0.00 | 42 | 1020.1 |
| 20260502103255 | 25 | 270 | 3.2 | 6.4 | 0.00 | 0.00 | 0.00 | 42 | 1020.2 |
| 20260502102754 | 25 | 332 | 4.8 | 8.0 | 0.00 | 0.00 | 0.00 | 42 | 1020.3 |
| 20260502102255 | 25 | 267 | 4.8 | 8.0 | 0.00 | 0.00 | 0.00 | 45 | 1020.4 |
| 20260502101755 | 24 | 240 | 0.0 | 4.8 | 0.00 | 0.00 | 0.00 | 48 | 1020.4 |
| 20260502101255 | 23 | 115 | 1.6 | 8.0 | 0.00 | 0.00 | 0.00 | 45 | 1020.5 |
| 20260502100755 | 23 | 236 | 1.6 | 9.7 | 0.00 | 0.00 | 0.00 | 43 | 1020.6 |
| 20260502100254 | 23 | 246 | 4.8 | 8.0 | 0.00 | 0.00 | 0.00 | 44 | 1020.7 |
| 20260502091255 | 22 | 295 | 4.8 | 11.3 | 0.00 | 0.00 | 0.00 | 43 | 1021.4 |
| 20260502090754 | 22 | 285 | 3.2 | 6.4 | 0.00 | 0.00 | 0.00 | 46 | 1021.6 |
| 20260502090254 | 22 | 288 | 3.2 | 6.4 | 0.00 | 0.00 | 0.00 | 43 | 1021.6 |
| 20260502071253 | 16 | 248 | 0.0 | 4.8 | 0.00 | 0.00 | 0.00 | 50 | 1022.0 |
| 20260502070753 | 16 | 202 | 4.8 | 8.0 | 0.00 | 0.00 | 0.00 | 53 | 1022.1 |
| 20260502070254 | 15 | 157 | 1.6 | 3.2 | 0.00 | 0.00 | 0.00 | 59 | 1022.1 |
| 20260502065753 | 15 | 263 | 1.6 | 4.8 | 0.00 | 0.00 | 0.00 | 60 | 1022.2 |
| 20260502065254 | 14 | 156 | 1.6 | 4.8 | 0.00 | 0.00 | 0.00 | 65 | 1022.2 |
| 20260502064754 | 13 | 126 | 1.6 | 1.6 | 0.00 | 0.00 | 0.00 | 69 | 1022.2 |
| 20260502064254 | 13 | 110 | 0.0 | 0.0 | 0.00 | 0.00 | 0.00 | 69 | 1022.2 |
| 20260502063754 | 12 | 110 | 0.0 | 1.6 | 0.00 | 0.00 | 0.00 | 69 | 1022.2 |
| 20260502063255 | 12 | 179 | 0.0 | 1.6 | 0.00 | 0.00 | 0.00 | 71 | 1022.2 |
| 20260502062755 | 11 | 157 | 0.0 | 1.6 | 0.00 | 0.00 | 0.00 | 72 | 1022.2 |
| 20260502062254 | 11 | 158 | 0.0 | 1.6 | 0.00 | 0.00 | 0.00 | 72 | 1022.2 |
| 20260502061754 | 11 | 158 | 0.0 | 1.6 | 0.00 | 0.00 | 0.00 | 72 | 1022.2 |
| 20260502061255 | 11 | 158 | 0.0 | 0.0 | 0.00 | 0.00 | 0.00 | 73 | 1022.2 |
| 20260502060755 | 11 | 159 | 0.0 | 1.6 | 0.00 | 0.00 | 0.00 | 73 | 1022.2 |
| 20260502060255 | 10 | 165 | 0.0 | 1.6 | 0.00 | 0.00 | 0.00 | 74 | 1022.2 |
| 20260502055755 | 10 | 275 | 0.0 | 1.6 | 0.00 | 0.00 | 0.00 | 75 | 1022.4 |
| 20260502055254 | 10 | 274 | 0.0 | 1.6 | 0.00 | 0.00 | 0.00 | 76 | 1022.3 |
| 20260502054755 | 10 | 279 | 0.0 | 3.2 | 0.00 | 0.00 | 0.00 | 77 | 1022.3 |
| 20260502054253 | 9 | 292 | 4.8 | 8.0 | 0.00 | 0.00 | 0.00 | 78 | 1022.4 |
| 20260502053755 | 8 | 277 | 4.8 | 8.0 | 0.00 | 0.00 | 0.00 | 80 | 1022.3 |
| 20260502053254 | 8 | 279 | 3.2 | 6.4 | 0.00 | 0.00 | 0.00 | 81 | 1022.3 |
| 20260502052753 | 8 | 250 | 3.2 | 6.4 | 0.00 | 0.00 | 0.00 | 82 | 1022.2 |
| 20260502052255 | 8 | 288 | 3.2 | 4.8 | 0.00 | 0.00 | 0.00 | 83 | 1022.1 |
| 20260502051754 | 7 | 329 | 0.0 | 3.2 | 0.00 | 0.00 | 0.00 | 83 | 1022.0 |
| 20260502051254 | 7 | 5 | 0.0 | 1.6 | 0.00 | 0.00 | 0.00 | 82 | 1022.0 |
| 20260502050754 | 7 | 71 | 0.0 | 1.6 | 0.00 | 0.00 | 0.00 | 82 | 1021.9 |
| 20260502050254 | 7 | 28 | 0.0 | 3.2 | 0.00 | 0.00 | 0.00 | 81 | 1021.9 |
| 20260502045754 | 6 | 17 | 0.0 | 1.6 | 0.00 | 0.00 | 0.00 | 81 | 1021.9 |
| 20260502045254 | 6 | 281 | 0.0 | 0.0 | 0.00 | 0.00 | 0.00 | 81 | 1021.9 |
| 20260502044753 | 6 | 281 | 1.6 | 4.8 | 0.00 | 0.00 | 0.00 | 81 | 1021.9 |
| 20260502044253 | 6 | 90 | 0.0 | 3.2 | 0.00 | 0.00 | 0.00 | 80 | 1021.9 |
| 20260502043754 | 6 | 90 | 0.0 | 1.6 | 0.00 | 0.00 | 0.00 | 80 | 1021.9 |
| 20260502043253 | 6 | 116 | 1.6 | 3.2 | 0.00 | 0.00 | 0.00 | 80 | 1021.9 |
| 20260502042755 | 6 | 98 | 1.6 | 3.2 | 0.00 | 0.00 | 0.00 | 80 | 1022.0 |
| 20260502042254 | 6 | 146 | 0.0 | 1.6 | 0.00 | 0.00 | 0.00 | 80 | 1022.0 |
| 20260502041755 | 6 | 146 | 0.0 | 0.0 | 0.00 | 0.00 | 0.00 | 79 | 1022.0 |
| 20260502041254 | 6 | 146 | 0.0 | 1.6 | 0.00 | 0.00 | 0.00 | 79 | 1021.9 |
| 20260502040753 | 6 | 145 | 0.0 | 3.2 | 0.00 | 0.00 | 0.00 | 79 | 1021.9 |
| 20260502040255 | 6 | 149 | 0.0 | 3.2 | 0.00 | 0.00 | 0.00 | 79 | 1021.9 |
| 20260502035755 | 6 | 154 | 0.0 | 0.0 | 0.00 | 0.00 | 0.00 | 78 | 1021.8 |
| 20260502035254 | 6 | 154 | 0.0 | 1.6 | 0.00 | 0.00 | 0.00 | 78 | 1021.9 |
| 20260502034755 | 7 | 138 | 0.0 | 3.2 | 0.00 | 0.00 | 0.00 | 78 | 1021.9 |
| 20260502034255 | 7 | 137 | 0.0 | 3.2 | 0.00 | 0.00 | 0.00 | 78 | 1021.8 |
| 20260502033754 | 7 | 86 | 1.6 | 3.2 | 0.00 | 0.00 | 0.00 | 77 | 1021.8 |
| 20260502033255 | 7 | 61 | 0.0 | 0.0 | 0.00 | 0.00 | 0.00 | 77 | 1021.8 |
| 20260502032754 | 7 | 61 | 0.0 | 1.6 | 0.00 | 0.00 | 0.00 | 77 | 1021.8 |
| 20260502032025 | 7 | 59 | 1.6 | 3.2 | 0.00 | 0.00 | 0.00 | 76 | 1021.8 |
| 20260502031525 | 7 | 60 | 1.6 | 3.2 | 0.00 | 0.00 | 0.00 | 75 | 1021.8 |
| 20260502031025 | 7 | 116 | 0.0 | 0.0 | 0.00 | 0.00 | 0.00 | 76 | 1021.8 |
| 20260502030524 | 7 | 116 | 0.0 | 1.6 | 0.00 | 0.00 | 0.00 | 75 | 1021.8 |
| 20260502030023 | 7 | 119 | 1.6 | 3.2 | 0.00 | 0.00 | 0.00 | 75 | 1021.9 |
| 20260502025525 | 7 | 109 | 0.0 | 3.2 | 0.00 | 0.00 | 0.00 | 74 | 1021.9 |
| 20260502025023 | 8 | 114 | 0.0 | 1.6 | 0.00 | 0.00 | 0.00 | 74 | 1021.9 |
| 20260502024524 | 8 | 114 | 0.0 | 0.0 | 0.00 | 0.00 | 0.00 | 74 | 1021.9 |
| 20260502024024 | 8 | 114 | 0.0 | 1.6 | 0.00 | 0.00 | 0.00 | 74 | 1022.0 |
| 20260502023523 | 8 | 114 | 0.0 | 1.6 | 0.00 | 0.00 | 0.00 | 72 | 1021.9 |
| 20260502023024 | 8 | 114 | 0.0 | 3.2 | 0.00 | 0.00 | 0.00 | 72 | 1021.9 |
| 20260502022524 | 8 | 88 | 0.0 | 1.6 | 0.00 | 0.00 | 0.00 | 72 | 1021.9 |
| 20260502022023 | 8 | 88 | 0.0 | 1.6 | 0.00 | 0.00 | 0.00 | 72 | 1021.9 |
| 20260502021523 | 8 | 97 | 0.0 | 3.2 | 0.00 | 0.00 | 0.00 | 71 | 1021.9 |
| 20260502021023 | 9 | 319 | 0.0 | 0.0 | 0.00 | 0.00 | 0.00 | 70 | 1021.9 |
| 20260502020523 | 9 | 51 | 0.0 | 0.0 | 0.00 | 0.00 | 0.00 | 69 | 1021.9 |
| 20260502020024 | 10 | 54 | 0.0 | 0.0 | 0.00 | 0.00 | 0.00 | 68 | 1022.0 |
| 20260502015523 | 10 | 111 | 0.0 | 0.0 | 0.00 | 0.00 | 0.00 | 67 | 1022.0 |
| 20260502015023 | 10 | 133 | 0.0 | 0.0 | 0.00 | 0.00 | 0.00 | 66 | 1022.1 |
| 20260502014524 | 10 | 128 | 0.0 | 1.6 | 0.00 | 0.00 | 0.00 | 66 | 1022.1 |
| 20260502014023 | 10 | 109 | 0.0 | 1.6 | 0.00 | 0.00 | 0.00 | 65 | 1022.0 |
| 20260502013524 | 11 | 109 | 0.0 | 3.2 | 0.00 | 0.00 | 0.00 | 64 | 1022.1 |
| 20260502013025 | 11 | 289 | 0.0 | 1.6 | 0.00 | 0.00 | 0.00 | 64 | 1022.2 |
| 20260502012525 | 11 | 271 | 1.6 | 4.8 | 0.00 | 0.00 | 0.00 | 63 | 1022.1 |
| 20260502012025 | 11 | 269 | 0.0 | 4.8 | 0.00 | 0.00 | 0.00 | 63 | 1022.0 |
| 20260502011524 | 11 | 288 | 1.6 | 8.0 | 0.00 | 0.00 | 0.00 | 63 | 1021.9 |
| 20260502011024 | 11 | 328 | 1.6 | 6.4 | 0.00 | 0.00 | 0.00 | 62 | 1021.9 |
| 20260502010525 | 11 | 85 | 1.6 | 4.8 | 0.00 | 0.00 | 0.00 | 63 | 1021.9 |
| 20260502010023 | 11 | 295 | 1.6 | 4.8 | 0.00 | 0.00 | 0.00 | 62 | 1021.8 |
| 20260502005525 | 11 | 313 | 1.6 | 6.4 | 0.00 | 0.00 | 0.00 | 63 | 1021.8 |
| 20260502005024 | 11 | 300 | 0.0 | 4.8 | 0.00 | 0.00 | 0.00 | 63 | 1021.8 |
| 20260502004524 | 11 | 38 | 0.0 | 4.8 | 0.00 | 0.00 | 0.00 | 62 | 1021.8 |
| 20260502004024 | 11 | 360 | 1.6 | 3.2 | 0.00 | 0.00 | 0.00 | 62 | 1021.9 |
| 20260502003523 | 12 | 46 | 3.2 | 4.8 | 0.00 | 0.00 | 0.00 | 61 | 1021.8 |
| 20260502003023 | 12 | 5 | 3.2 | 3.2 | 0.00 | 0.00 | 0.00 | 60 | 1021.8 |
| 20260502002524 | 12 | 311 | 0.0 | 4.8 | 0.00 | 0.00 | 0.00 | 60 | 1021.8 |
| 20260502002024 | 12 | 295 | 6.4 | 8.0 | 0.00 | 0.00 | 0.00 | 59 | 1021.9 |
| 20260502001523 | 13 | 297 | 4.8 | 8.0 | 0.00 | 0.00 | 0.00 | 57 | 1021.9 |
| 20260502001023 | 13 | 280 | 6.4 | 9.7 | 0.00 | 0.00 | 0.00 | 56 | 1021.9 |
| 20260502000523 | 14 | 321 | 3.2 | 6.4 | 0.00 | 0.00 | 0.00 | 53 | 1022.0 |
| 20260502000025 | 14 | 279 | 3.2 | 6.4 | 0.00 | 0.00 | 0.00 | 51 | 1022.1 |
| 20260501235523 | 15 | 293 | 4.8 | 9.7 | 0.00 | 0.00 | 0.00 | 50 | 1022.1 |
| 20260501235025 | 16 | 308 | 6.4 | 9.7 | 0.00 | 0.00 | 0.00 | 46 | 1022.2 |
| 20260501234525 | 17 | 276 | 9.7 | 12.9 | 0.00 | 0.00 | 0.00 | 42 | 1022.2 |
| 20260501234024 | 17 | 244 | 3.2 | 9.7 | 0.00 | 0.00 | 0.00 | 38 | 1022.2 |
| 20260501233525 | 17 | 136 | 6.4 | 12.9 | 0.00 | 0.00 | 0.00 | 39 | 1022.1 |
| 20260501233025 | 17 | 134 | 4.8 | 17.7 | 0.00 | 0.00 | 0.00 | 39 | 1022.1 |
| 20260501232524 | 17 | 116 | 3.2 | 11.3 | 0.00 | 0.00 | 0.00 | 39 | 1022.1 |
| 20260501232024 | 17 | 118 | 4.8 | 14.5 | 0.00 | 0.00 | 0.00 | 39 | 1022.1 |
| 20260501231525 | 17 | 119 | 3.2 | 9.7 | 0.00 | 0.00 | 0.00 | 39 | 1022.1 |
| 20260501231025 | 17 | 139 | 3.2 | 8.0 | 0.00 | 0.00 | 0.00 | 40 | 1022.1 |
| 20260501230525 | 17 | 146 | 3.2 | 12.9 | 0.00 | 0.00 | 0.00 | 40 | 1022.1 |
| 20260501230024 | 17 | 143 | 3.2 | 12.9 | 0.00 | 0.00 | 0.00 | 41 | 1022.1 |
| 20260501225525 | 16 | 110 | 4.8 | 12.9 | 0.00 | 0.00 | 0.00 | 41 | 1022.1 |
| 20260501225023 | 15 | 138 | 4.8 | 12.9 | 0.00 | 0.00 | 0.00 | 44 | 1022.1 |
| 20260501224523 | 15 | 126 | 4.8 | 12.9 | 0.00 | 0.00 | 0.00 | 47 | 1022.2 |
| 20260501224024 | 13 | 132 | 3.2 | 8.0 | 0.00 | 0.00 | 0.00 | 51 | 1022.2 |
| 20260501223523 | 12 | 108 | 8.0 | 17.7 | 0.00 | 0.00 | 0.00 | 57 | 1022.1 |
| 20260501223024 | 10 | 88 | 6.4 | 16.1 | 0.00 | 0.00 | 0.00 | 65 | 1022.2 |
| 20260501222524 | 9 | 57 | 0.0 | 3.2 | 0.00 | 0.00 | 0.00 | 72 | 1022.3 |
| 20260501222024 | 9 | 360 | 0.0 | 3.2 | 0.00 | 0.00 | 0.00 | 72 | 1022.3 |
| 20260501221524 | 9 | 348 | 0.0 | 1.6 | 0.00 | 0.00 | 0.00 | 72 | 1022.4 |
| 20260501221024 | 9 | 330 | 0.0 | 1.6 | 0.00 | 0.00 | 0.00 | 72 | 1022.4 |
| 20260501220523 | 9 | 298 | 0.0 | 1.6 | 0.00 | 0.00 | 0.00 | 72 | 1022.4 |
| 20260501220025 | 9 | 317 | 0.0 | 4.8 | 0.00 | 0.00 | 0.00 | 72 | 1022.4 |
| 20260501215524 | 10 | 320 | 0.0 | 0.0 | 0.00 | 0.00 | 0.00 | 72 | 1022.4 |
| 20260501215024 | 10 | 46 | 0.0 | 0.0 | 0.00 | 0.00 | 0.00 | 71 | 1022.4 |
| 20260501214525 | 10 | 34 | 0.0 | 0.0 | 0.00 | 0.00 | 0.00 | 70 | 1022.4 |
| 20260501214025 | 10 | 15 | 0.0 | 0.0 | 0.00 | 0.00 | 0.00 | 70 | 1022.4 |
| 20260501213525 | 10 | 15 | 0.0 | 0.0 | 0.00 | 0.00 | 0.00 | 70 | 1022.4 |
| 20260501213025 | 10 | 15 | 0.0 | 0.0 | 0.00 | 0.00 | 0.00 | 70 | 1022.4 |
| 20260501212524 | 10 | 79 | 0.0 | 0.0 | 0.00 | 0.00 | 0.00 | 69 | 1022.3 |
| 20260501212025 | 10 | 137 | 0.0 | 0.0 | 0.00 | 0.00 | 0.00 | 68 | 1022.2 |
| 20260501211523 | 10 | 137 | 0.0 | 1.6 | 0.00 | 0.00 | 0.00 | 67 | 1022.2 |
| 20260501211024 | 10 | 137 | 1.6 | 1.6 | 0.00 | 0.00 | 0.00 | 68 | 1022.2 |
| 20260501210523 | 11 | 136 | 0.0 | 1.6 | 0.00 | 0.00 | 0.00 | 67 | 1022.2 |
| 20260501210023 | 11 | 136 | 0.0 | 1.6 | 0.00 | 0.00 | 0.00 | 67 | 1022.2 |
| 20260501205524 | 11 | 126 | 1.6 | 3.2 | 0.00 | 0.00 | 0.00 | 66 | 1022.2 |
| 20260501205023 | 11 | 162 | 0.0 | 1.6 | 0.00 | 0.00 | 0.00 | 65 | 1022.2 |
| 20260501204524 | 11 | 162 | 0.0 | 1.6 | 0.00 | 0.00 | 0.00 | 65 | 1022.1 |
| 20260501204023 | 11 | 162 | 1.6 | 3.2 | 0.00 | 0.00 | 0.00 | 64 | 1022.1 |
| 20260501203523 | 11 | 175 | 0.0 | 1.6 | 0.00 | 0.00 | 0.00 | 63 | 1022.2 |
| 20260501203024 | 12 | 175 | 0.0 | 3.2 | 0.00 | 0.00 | 0.00 | 63 | 1022.2 |
| 20260501202524 | 12 | 138 | 0.0 | 3.2 | 0.00 | 0.00 | 0.00 | 61 | 1022.2 |
| 20260501202023 | 12 | 147 | 3.2 | 3.2 | 0.00 | 0.00 | 0.00 | 61 | 1022.2 |
| 20260501201525 | 12 | 150 | 1.6 | 1.6 | 0.00 | 0.00 | 0.00 | 60 | 1022.2 |
| 20260501201024 | 12 | 150 | 0.0 | 3.2 | 0.00 | 0.00 | 0.00 | 60 | 1022.2 |
| 20260501200524 | 13 | 155 | 3.2 | 4.8 | 0.00 | 0.00 | 0.00 | 59 | 1022.1 |
| 20260501200025 | 13 | 160 | 1.6 | 1.6 | 0.00 | 0.00 | 0.00 | 58 | 1022.1 |
| 20260501195525 | 13 | 159 | 1.6 | 3.2 | 0.00 | 0.00 | 0.00 | 58 | 1022.0 |
| 20260501195025 | 13 | 156 | 0.0 | 4.8 | 0.00 | 0.00 | 0.00 | 57 | 1022.0 |
| 20260501194525 | 13 | 162 | 1.6 | 3.2 | 0.00 | 0.00 | 0.00 | 57 | 1022.0 |
| 20260501194024 | 14 | 165 | 1.6 | 4.8 | 0.00 | 0.00 | 0.00 | 55 | 1022.0 |
| 20260501193524 | 14 | 150 | 1.6 | 3.2 | 0.00 | 0.00 | 0.00 | 57 | 1021.9 |
| 20260501193023 | 15 | 133 | 3.2 | 4.8 | 0.00 | 0.00 | 0.00 | 55 | 1021.9 |
| 20260501192525 | 15 | 124 | 3.2 | 4.8 | 0.00 | 0.00 | 0.00 | 54 | 1021.8 |
| 20260501192024 | 15 | 156 | 1.6 | 4.8 | 0.00 | 0.00 | 0.00 | 55 | 1021.8 |
| 20260501191524 | 15 | 163 | 1.6 | 4.8 | 0.00 | 0.00 | 0.00 | 54 | 1021.8 |
| 20260501191024 | 15 | 168 | 3.2 | 4.8 | 0.00 | 0.00 | 0.00 | 53 | 1021.7 |
| 20260501190523 | 16 | 159 | 1.6 | 4.8 | 0.00 | 0.00 | 0.00 | 52 | 1021.7 |
| 20260501190023 | 16 | 163 | 1.6 | 4.8 | 0.00 | 0.00 | 0.00 | 52 | 1021.7 |
| 20260501185524 | 17 | 155 | 1.6 | 3.2 | 0.00 | 0.00 | 0.00 | 52 | 1021.6 |
| 20260501185024 | 17 | 148 | 1.6 | 3.2 | 0.00 | 0.00 | 0.00 | 51 | 1021.7 |
| 20260501184525 | 17 | 148 | 1.6 | 3.2 | 0.00 | 0.00 | 0.00 | 50 | 1021.6 |
| 20260501184023 | 18 | 150 | 0.0 | 1.6 | 0.00 | 0.00 | 0.00 | 49 | 1021.6 |
| 20260501183525 | 18 | 154 | 0.0 | 3.2 | 0.00 | 0.00 | 0.00 | 48 | 1021.5 |
| 20260501183025 | 19 | 59 | 1.6 | 4.8 | 0.00 | 0.00 | 0.00 | 47 | 1021.4 |
| 20260501182524 | 20 | 76 | 1.6 | 4.8 | 0.00 | 0.00 | 0.00 | 46 | 1021.3 |
| 20260501182025 | 20 | 327 | 0.0 | 1.6 | 0.00 | 0.00 | 0.00 | 43 | 1021.4 |
| 20260501181523 | 21 | 327 | 0.0 | 3.2 | 0.00 | 0.00 | 0.00 | 40 | 1021.3 |
| 20260501181025 | 21 | 338 | 1.6 | 3.2 | 0.00 | 0.00 | 0.00 | 33 | 1021.3 |
| 20260501180524 | 21 | 338 | 1.6 | 4.8 | 0.00 | 0.00 | 0.00 | 32 | 1021.2 |
| 20260501180024 | 21 | 5 | 1.6 | 4.8 | 0.00 | 0.00 | 0.00 | 31 | 1021.2 |
| 20260501175524 | 21 | 338 | 3.2 | 4.8 | 0.00 | 0.00 | 0.00 | 31 | 1021.1 |
| 20260501175023 | 22 | 17 | 3.2 | 4.8 | 0.00 | 0.00 | 0.00 | 30 | 1021.2 |
| 20260501174523 | 22 | 341 | 3.2 | 4.8 | 0.00 | 0.00 | 0.00 | 31 | 1021.1 |
| 20260501174024 | 22 | 343 | 6.4 | 8.0 | 0.00 | 0.00 | 0.00 | 31 | 1021.1 |
| 20260501173524 | 22 | 23 | 3.2 | 6.4 | 0.00 | 0.00 | 0.00 | 31 | 1021.1 |
| 20260501173023 | 22 | 323 | 1.6 | 4.8 | 0.00 | 0.00 | 0.00 | 30 | 1021.1 |
| 20260501172523 | 22 | 331 | 3.2 | 9.7 | 0.00 | 0.00 | 0.00 | 30 | 1021.1 |
| 20260501172023 | 22 | 297 | 4.8 | 8.0 | 0.00 | 0.00 | 0.00 | 32 | 1021.1 |
| 20260501171525 | 23 | 360 | 3.2 | 9.7 | 0.00 | 0.00 | 0.00 | 31 | 1021.1 |
| 20260501171024 | 23 | 5 | 6.4 | 9.7 | 0.00 | 0.00 | 0.00 | 29 | 1021.0 |
| 20260501170525 | 23 | 282 | 3.2 | 6.4 | 0.00 | 0.00 | 0.00 | 30 | 1021.1 |
| 20260501170024 | 23 | 330 | 4.8 | 11.3 | 0.00 | 0.00 | 0.00 | 28 | 1021.1 |
| 20260501165525 | 23 | 321 | 4.8 | 12.9 | 0.00 | 0.00 | 0.00 | 28 | 1021.1 |
| 20260501165025 | 23 | 346 | 3.2 | 8.0 | 0.00 | 0.00 | 0.00 | 29 | 1021.2 |
| 20260501164524 | 23 | 272 | 3.2 | 8.0 | 0.00 | 0.00 | 0.00 | 29 | 1021.2 |
| 20260501164024 | 23 | 80 | 3.2 | 14.5 | 0.00 | 0.00 | 0.00 | 28 | 1021.1 |